Modesto, CA

7:16 PM PDT on June 23, 2017 (GMT -0700)
Modesto City-County-Sham

Weather History for KMOD - May, 2013

Change the Weather History Date:

Monday, May 13, 2013

  Actual Average Record
Temperature  
Mean Temperature 78 °F -  
Max Temperature 94 °F 82 °F 100 °F (1976)
Min Temperature 62 °F 55 °F 41 °F (1962)
Degree Days  
Heating Degree Days 0 1  
Month to date heating degree days 0 20  
Since 1 July heating degree days 2139 2154  
Cooling Degree Days 13 5  
Month to date cooling degree days 92 48  
Year to date cooling degree days 169 92  
Growing Degree Days 28 (Base 50)    
Moisture  
Dew Point 44 °F    
Average Humidity 29    
Maximum Humidity 43    
Minimum Humidity 15    
Precipitation  
Precipitation 0.00 in 0.02 in 0.14 in (1995)
Month to date precipitation 0.14 0.31  
Year to date precipitation 3.14 8.31  
Since 1 July precipitation 9.02  
Snow  
Snow 0.00 in - - ()
Month to date snowfall 0.0  
Since 1 July snowfall 0.0  
Snow Depth -    
Sea Level Pressure  
Sea Level Pressure 29.96 in    
Wind  
Wind Speed 8 mph (NNW)    
Max Wind Speed 25 mph    
Max Gust Speed 33 mph    
Visibility 10 miles    
Events      
T = Trace of Precipitation, MM = Missing Value Source: NWS Daily Summary

Daily Weather History Graph

Daily Weather History Graph

Search for Another Location

Airport or City:

Trip Planner

Search our weather history database for the weather conditions in past years. The results will help you decide how hot, cold, wet, or windy it might be!

Date:

Astronomy

May. 13, 2013 Rise Set
Actual Time 5:55 AM PDT 8:05 PM PDT
Civil Twilight 5:26 AM PDT 8:34 PM PDT
Nautical Twilight 4:50 AM PDT 9:10 PM PDT
Astronomical Twilight 4:12 AM PDT 9:49 PM PDT
Moon 8:46 AM PDT (5/13) 11:17 PM PDT (5/13)
Length of Visible Light 15h 07m
Length of Day
14h 09m
Waxing Crescent, 13% of the Moon is Illuminated
May 13
Waxing Crescent
May 17
First Quarter
May 24
Full
May 31
Last Quarter
Jun 8
New

Hourly Weather History & Observations

Time (PDT) Temp. Heat Index Dew Point Humidity Pressure Visibility Wind Dir Wind Speed Gust Speed Precip Events Conditions
12:53 AM 69.1 °F - 45.0 °F 42% 29.99 in 10.0 mi North 4.6 mph - N/A   Clear
1:22 AM 68.0 °F - 42.8 °F 40% 29.99 in 10.0 mi NW 15.0 mph 33.4 mph N/A   Squalls
1:53 AM 68.0 °F - 42.1 °F 39% 29.98 in 10.0 mi North 4.6 mph - N/A   Clear
2:53 AM 66.9 °F - 42.1 °F 40% 29.97 in 10.0 mi North 4.6 mph - N/A   Clear
3:53 AM 64.9 °F - 41.0 °F 42% 29.97 in 10.0 mi North 3.5 mph - N/A   Clear
4:53 AM 64.9 °F - 39.9 °F 40% 29.98 in 10.0 mi North 8.1 mph - N/A   Clear
5:53 AM 64.0 °F - 39.9 °F 41% 29.99 in 10.0 mi NW 6.9 mph - N/A   Clear
6:53 AM 64.9 °F - 41.0 °F 42% 30.01 in 10.0 mi NW 3.5 mph - N/A   Clear
7:53 AM 70.0 °F - 43.0 °F 38% 30.02 in 10.0 mi Variable 3.5 mph - N/A   Clear
8:53 AM 75.0 °F - 43.0 °F 32% 30.02 in 10.0 mi NNW 6.9 mph - N/A   Clear
9:53 AM 78.1 °F - 42.1 °F 28% 30.04 in 10.0 mi NW 8.1 mph - N/A   Clear
10:53 AM 81.0 °F - 42.1 °F 25% 30.04 in 10.0 mi NNW 8.1 mph - N/A   Clear
11:53 AM 84.9 °F - 41.0 °F 21% 30.03 in 10.0 mi North 8.1 mph - N/A   Clear
1:53 PM 91.0 °F - 41.0 °F 17% 29.99 in 10.0 mi NNW 9.2 mph - N/A   Clear
2:53 PM 91.9 °F - 37.0 °F 15% 29.97 in 10.0 mi NNW 10.4 mph - N/A   Clear
3:53 PM 91.9 °F - 44.1 °F 19% 29.94 in 10.0 mi NNW 9.2 mph 16.1 mph N/A   Clear
5:53 PM 91.9 °F - 45.0 °F 20% 29.89 in 10.0 mi NNW 9.2 mph - N/A   Clear
6:53 PM 90.0 °F - 42.1 °F 19% 29.87 in 10.0 mi NNW 13.8 mph - N/A   Clear
7:53 PM 82.9 °F 81.8 °F 53.1 °F 36% 29.88 in 10.0 mi NW 12.7 mph - N/A   Clear
8:53 PM 79.0 °F - 48.0 °F 34% 29.88 in 10.0 mi NW 13.8 mph - N/A   Clear
9:53 PM 75.9 °F - 50.0 °F 40% 29.90 in 10.0 mi NNW 8.1 mph - N/A   Clear
10:53 PM 73.9 °F - 50.0 °F 43% 29.89 in 10.0 mi NNW 9.2 mph - N/A   Clear
11:53 PM 72.0 °F - 50.0 °F 46% 29.89 in 10.0 mi NNW 6.9 mph - N/A   Clear